Regional Weather Roundup
Issued by NWS Raleigh/Durham, NC

Home | Current Version | Previous Version | Text Only | Print | Product List | Glossary On
Versions: 1 2 3 4 5 6 7 8 9 10 11 12 13 14 15 16 17 18 19 20 21 22 23 24 25 26 27 28 29 30 31 32 33 34 35 36 37 38 39 40 41 42 43 44 45 46 47 48 49 50
000
ASUS42 KRAH 020510
RWRRAH
NORTH CAROLINA WEATHER ROUNDUP
NATIONAL WEATHER SERVICE RALEIGH NC
100 AM EDT WED SEP 02 2015

NOTE: "FAIR" INDICATES FEW OR NO CLOUDS BELOW 12,000 FEET WITH NO
SIGNIFICANT WEATHER AND/OR OBSTRUCTIONS TO VISIBILITY.

NCZ001-053-055-056-065-067-020600-
WESTERN NORTH CAROLINA

CITY           SKY/WX    TMP DP  RH WIND       PRES   REMARKS
ASHEVILLE      CLOUDY    69  65  86 CALM      30.20S
JEFFERSON      PTCLDY    65  64  97 CALM      30.25S
MORGANTON      PTCLDY    69  67  94 CALM      30.17F
HICKORY        PTCLDY    75  67  76 CALM      30.12S
RUTHERFORDTON  PTCLDY    71  69  95 CALM      30.13S
MOUNT AIRY     MOCLDY    73  68  86 CALM      30.15S
BOONE          CLEAR     62  62 100 CALM      30.27R FOG
$$

NCZ021-022-025-041-071-084-088-020600-
CENTRAL NORTH CAROLINA

CITY           SKY/WX    TMP DP  RH WIND       PRES   REMARKS
CHARLOTTE      PTCLDY    75  67  76 CALM      30.11S
GREENSBORO     MOCLDY    75  65  70 CALM      30.11R
WINSTON-SALEM  PTCLDY    72  66  81 CALM      30.13R
RALEIGH-DURHAM PTCLDY    72  68  87 CALM      30.09S
FORT BRAGG     CLEAR     74  72  93 CALM      30.07S
FAYETTEVILLE   CLEAR     75  71  87 S6        30.07S
BURLINGTON     CLEAR     71  71 100 S3        30.10R
LAURINBURG     CLEAR     74  70  87 W3        30.09R
$$

NCZ011-015-027-028-043-044-047-080-103-020600-
NORTHEASTERN NORTH CAROLINA

CITY           SKY/WX    TMP DP  RH WIND       PRES   REMARKS
ROCKY MT-WILSO CLEAR     70  69  97 CALM      30.08S
GREENVILLE     CLEAR     72  72 100 CALM      30.09S FOG
WASHINGTON     PTCLDY    71  70  97 CALM      30.07S
ELIZABETH CITY FOG       72  72 100 CALM      30.06S VSB 1/2
MANTEO         CLEAR     72  72  98 CALM      30.06S
CAPE HATTERAS  CLEAR     73  72  96 W3        30.06S
$$

NCZ078-087-090-091-093-098-101-020600-
SOUTHEASTERN NORTH CAROLINA

CITY           SKY/WX    TMP DP  RH WIND       PRES   REMARKS
LUMBERTON      CLEAR     75  72  90 CALM      30.08S
GOLDSBORO      CLEAR     72  70  94 CALM      30.06S
KINSTON        CLEAR     72  71  97 CALM      30.08S
KENANSVILLE      N/A     71  70  97 CALM      30.08F
NEW BERN       PTCLDY    74  72  93 SW5       30.08F
CHERRY POINT   CLEAR     74  72  93 SW5       30.08S
BEAUFORT       PTCLDY    76  76 100 CALM      30.07S
JACKSONVILLE   PTCLDY    75  72  90 SW5       30.07S
WILMINGTON     PTCLDY    76  73  91 SW3       30.08S
$$



USA.gov is the U.S. government's official web portal to all federal, state and local government web resources and services.